Weather History for Bishop, CA

Change the Weather History Date:

Sunday, August 4, 2013

  Actual Average Record
Temperature  
Mean Temperature 74 °F 77 °F  
Max Temperature 97 °F 98 °F 105 °F (1949)
Min Temperature 50 °F 56 °F 45 °F (1956)
Degree Days  
Heating Degree Days 0 0  
Month to date heating degree days 0 0  
Since 1 June heating degree days 0 20  
Since 1 July heating degree days 0 1  
Cooling Degree Days 9 12  
Month to date cooling degree days 33 48  
Year to date cooling degree days 904 712  
Since 1 June cooling degree days 818 644  
Growing Degree Days 24 (Base 50)    
Moisture  
Dew Point 18 °F    
Average Humidity 21    
Maximum Humidity 38    
Minimum Humidity 4    
Precipitation  
Precipitation 0.00 in 0.00 in 0.10 in (2012)
Month to date precipitation 0.00 0.02  
Year to date precipitation 0.95 3.26  
Snow  
Snow 0.00 in 0.00 in - ()
Month to date snowfall 0.0 0.0  
Since 1 June snowfall 0.0 0.0  
Since 1 July snowfall 0.0 0.0  
Snow Depth 0.00 in    
Sea Level Pressure  
Sea Level Pressure 29.87 in    
Wind  
Wind Speed 9 mph (South)    
Max Wind Speed 23 mph    
Max Gust Speed 29 mph    
Visibility 10 miles    
Events      
T = Trace of Precipitation, MM = Missing Value Source: NWS Daily Summary

Daily Weather History Graph

Daily Weather History Graph

Search for Another Location

Airport:

Trip Planner

Search our weather history database for the weather conditions in past years. The results will help you decide how hot, cold, wet, or windy it might be!

Date:

Astronomy

Aug. 04, 2013 Rise Set
Actual Time 6:00 AM PDT 7:57 PM PDT
Civil Twilight 5:31 AM PDT 8:26 PM PDT
Nautical Twilight 4:57 AM PDT 9:01 PM PDT
Astronomical Twilight 4:19 AM PDT 9:38 PM PDT
Moon 4:06 AM PDT (8/4) 6:24 PM PDT (8/4)
Length of Visible Light 14h 54m
Length of Day
13h 57m
Waning Crescent, 4% of the Moon is Illuminated
Aug 4
Waning Crescent
Aug 6
New
Aug 14
First Quarter
Aug 20
Full
Aug 28
Last Quarter

Hourly Weather History & Observations

Time (PDT) Temp. Dew Point Humidity Pressure Visibility Wind Dir Wind Speed Gust Speed Precip Events Conditions
12:56 AM 71.1 °F 21.9 °F 16% 29.86 in 10.0 mi SW 6.9 mph - N/A   Clear
1:56 AM 60.1 °F 23.0 °F 24% 29.89 in 10.0 mi North 6.9 mph - N/A   Clear
2:56 AM 60.1 °F 24.1 °F 25% 29.89 in 10.0 mi NW 6.9 mph - N/A   Clear
3:56 AM 55.9 °F 25.0 °F 30% 29.90 in 10.0 mi North 3.5 mph - N/A   Clear
4:56 AM 55.0 °F 26.1 °F 33% 29.91 in 10.0 mi NW 4.6 mph - N/A   Clear
5:56 AM 52.0 °F 26.1 °F 37% 29.94 in 10.0 mi NW 8.1 mph - N/A   Clear
6:56 AM 55.9 °F 27.0 °F 33% 29.95 in 10.0 mi Calm Calm - N/A   Clear
7:56 AM 66.9 °F 25.0 °F 21% 29.95 in 10.0 mi Calm Calm - N/A   Clear
8:56 AM 73.9 °F 24.1 °F 16% 29.94 in 10.0 mi Calm Calm - N/A   Clear
9:56 AM 81.0 °F 23.0 °F 12% 29.91 in 10.0 mi Calm Calm - N/A   Clear
10:56 AM 84.0 °F 19.9 °F 9% 29.90 in 10.0 mi Calm Calm - N/A   Clear
11:56 AM 90.0 °F 12.0 °F 6% 29.88 in 10.0 mi SE 6.9 mph 16.1 mph N/A   Clear
12:56 PM 93.0 °F 9.0 °F 4% 29.86 in 10.0 mi SSE 19.6 mph 25.3 mph N/A   Clear
1:56 PM 95.0 °F 8.1 °F 4% 29.85 in 10.0 mi South 12.7 mph 26.5 mph N/A   Clear
2:56 PM 97.0 °F 9.0 °F 4% 29.82 in 10.0 mi South 18.4 mph 27.6 mph N/A   Clear
3:56 PM 96.1 °F 10.0 °F 4% 29.82 in 10.0 mi SSE 17.3 mph 27.6 mph N/A   Clear
4:56 PM 96.1 °F 10.9 °F 4% 29.80 in 10.0 mi South 13.8 mph - N/A   Clear
5:56 PM 95.0 °F 9.0 °F 4% 29.79 in 10.0 mi SE 16.1 mph 23.0 mph N/A   Clear
6:56 PM 91.9 °F 10.0 °F 5% 29.80 in 10.0 mi SSE 19.6 mph 25.3 mph N/A   Clear
7:56 PM 86.0 °F 14.0 °F 7% 29.79 in 10.0 mi SSE 13.8 mph - N/A   Clear
8:56 PM 82.9 °F 14.0 °F 8% 29.82 in 10.0 mi SE 16.1 mph - N/A   Clear
9:56 PM 79.0 °F 16.0 °F 9% 29.85 in 10.0 mi SSE 9.2 mph - N/A   Clear
10:56 PM 73.9 °F 19.0 °F 13% 29.86 in 10.0 mi South 6.9 mph - N/A   Clear
11:56 PM 75.9 °F 19.0 °F 12% 29.86 in 10.0 mi SSW 9.2 mph - N/A   Clear